Time,TemperatureF,DewpointF,PressureIn,WindDirection,WindDirectionDegrees,WindSpeedMPH,WindSpeedGustMPH,Humidity,HourlyPrecipIn,Conditions,Clouds,dailyrainin,SoftwareType,DateUTC
2013-03-08 00:01:00,34.8,21.5,29.81,South,183,0.0,0.0,58,0.00,,---,0.00,VWS V14.01,2013-03-08 07:01:00,
2013-03-08 00:06:00,34.6,21.8,29.79,South,183,0.0,0.0,59,0.00,,---,0.00,VWS V14.01,2013-03-08 07:06:00,
2013-03-08 00:11:00,34.9,20.8,29.79,South,183,0.0,0.0,56,0.00,,---,0.00,VWS V14.01,2013-03-08 07:11:00,
2013-03-08 00:16:00,36.3,20.8,29.77,South,183,1.0,1.0,53,0.00,,---,0.00,VWS V14.01,2013-03-08 07:16:00,
2013-03-08 06:15:00,34.8,21.1,29.82,South,180,2.0,8.0,57,0.00,,---,0.00,VWS V14.01,2013-03-08 13:15:00,
2013-03-08 06:27:00,35.8,21.2,29.82,South,185,0.0,2.0,55,0.00,,---,0.00,VWS V14.01,2013-03-08 13:27:00,
2013-03-08 06:33:00,36.2,21.2,29.82,South,185,0.0,5.0,54,0.00,,---,0.00,VWS V14.01,2013-03-08 13:33:00,
2013-03-08 06:37:00,36.8,21.3,29.81,South,184,6.0,8.0,53,0.00,,---,0.00,VWS V14.01,2013-03-08 13:37:00,
2013-03-08 06:40:00,36.9,21.4,29.81,South,180,2.0,6.0,53,0.00,,---,0.00,VWS V14.01,2013-03-08 13:40:00,
2013-03-08 06:43:00,37.1,21.6,29.81,South,185,1.0,3.0,53,0.00,,---,0.00,VWS V14.01,2013-03-08 13:43:00,
2013-03-08 06:51:00,36.9,21.4,29.81,South,180,2.0,6.0,53,0.00,,---,0.00,VWS V14.01,2013-03-08 13:51:00,
2013-03-08 06:57:00,36.2,21.6,29.83,South,186,0.0,0.0,55,0.00,,---,0.00,VWS V14.01,2013-03-08 13:57:00,
2013-03-08 07:02:00,36.4,21.8,29.82,South,186,5.0,5.0,55,0.00,,---,0.00,VWS V14.01,2013-03-08 14:02:00,
2013-03-08 07:07:00,36.3,21.7,29.83,South,186,3.0,3.0,55,0.00,,---,0.00,VWS V14.01,2013-03-08 14:07:00,
2013-03-08 07:12:00,36.5,21.9,29.83,South,186,6.0,6.0,55,0.00,,---,0.00,VWS V14.01,2013-03-08 14:12:00,
2013-03-08 07:17:00,37.8,20.8,29.82,South,186,2.0,6.0,50,0.00,,---,0.00,VWS V14.01,2013-03-08 14:17:00,
2013-03-08 07:22:00,39.6,21.5,29.80,South,186,1.0,1.0,48,0.00,,---,0.00,VWS V14.01,2013-03-08 14:22:00,
2013-03-08 07:27:00,40.7,21.5,29.78,South,186,0.0,0.0,46,0.00,,---,0.00,VWS V14.01,2013-03-08 14:27:00,
2013-03-08 07:32:00,41.8,21.0,29.78,South,186,0.0,0.0,43,0.00,,---,0.00,VWS V14.01,2013-03-08 14:32:00,
2013-03-08 07:37:00,42.9,21.4,29.77,South,186,0.0,0.0,42,0.00,,---,0.00,VWS V14.01,2013-03-08 14:37:00,
2013-03-08 07:42:00,43.9,21.2,29.77,South,186,0.0,0.0,40,0.00,,---,0.00,VWS V14.01,2013-03-08 14:42:00,
2013-03-08 07:47:00,44.7,21.3,29.75,South,186,0.0,1.0,39,0.00,,---,0.00,VWS V14.01,2013-03-08 14:47:00,
2013-03-08 07:52:00,45.4,21.9,29.75,South,186,0.0,1.0,39,0.00,,---,0.00,VWS V14.01,2013-03-08 14:52:00,
2013-03-08 07:57:00,45.5,22.6,29.75,South,186,0.0,0.0,40,0.00,,---,0.00,VWS V14.01,2013-03-08 14:57:00,
2013-03-08 08:02:00,45.2,21.7,29.75,South,186,3.0,6.0,39,0.00,,---,0.00,VWS V14.01,2013-03-08 15:02:00,
2013-03-08 08:07:00,44.9,22.6,29.75,South,186,0.0,0.0,41,0.00,,---,0.00,VWS V14.01,2013-03-08 15:07:00,
2013-03-08 08:12:00,44.2,23.7,29.81,South,186,0.0,0.0,44,0.00,,---,0.00,VWS V14.01,2013-03-08 15:12:00,
2013-03-08 08:17:00,43.3,22.9,29.81,South,186,0.0,3.0,44,0.00,,---,0.00,VWS V14.01,2013-03-08 15:17:00,
2013-03-08 08:22:00,42.2,23.9,29.81,SSW,192,1.0,4.0,48,0.00,,---,0.00,VWS V14.01,2013-03-08 15:22:00,
2013-03-08 08:27:00,41.6,23.9,29.82,South,191,1.0,1.0,49,0.00,,---,0.00,VWS V14.01,2013-03-08 15:27:00,
2013-03-08 08:32:00,41.3,24.1,29.82,SSW,192,0.0,0.0,50,0.00,,---,0.00,VWS V14.01,2013-03-08 15:32:00,
2013-03-08 08:37:00,41.1,23.9,29.81,South,191,0.0,0.0,50,0.00,,---,0.00,VWS V14.01,2013-03-08 15:37:00,
2013-03-08 08:42:00,41.2,24.0,29.81,SSW,192,0.0,1.0,50,0.00,,---,0.00,VWS V14.01,2013-03-08 15:42:00,
2013-03-08 08:47:00,41.4,23.7,29.81,South,191,0.0,1.0,49,0.00,,---,0.00,VWS V14.01,2013-03-08 15:47:00,
2013-03-08 08:52:00,41.6,23.9,29.81,SSW,192,0.0,0.0,49,0.00,,---,0.00,VWS V14.01,2013-03-08 15:52:00,
2013-03-08 08:57:00,41.8,23.6,29.81,South,191,0.0,1.0,48,0.00,,---,0.00,VWS V14.01,2013-03-08 15:57:00,
2013-03-08 09:02:00,42.1,23.8,29.81,SSW,192,0.0,2.0,48,0.00,,---,0.00,VWS V14.01,2013-03-08 16:02:00,
2013-03-08 09:07:00,42.4,23.1,29.76,SSW,192,0.0,2.0,46,0.00,,---,0.00,VWS V14.01,2013-03-08 16:07:00,
2013-03-08 09:12:00,42.7,22.3,29.75,SSW,192,0.0,0.0,44,0.00,,---,0.00,VWS V14.01,2013-03-08 16:12:00,
2013-03-08 09:17:00,43.2,23.3,29.75,SSW,192,0.0,0.0,45,0.00,,---,0.00,VWS V14.01,2013-03-08 16:17:00,
2013-03-08 09:22:00,43.5,22.5,29.73,SSW,192,1.0,4.0,43,0.00,,---,0.00,VWS V14.01,2013-03-08 16:22:00,
2013-03-08 09:27:00,44.0,22.4,29.73,SSW,192,0.0,2.0,42,0.00,,---,0.00,VWS V14.01,2013-03-08 16:27:00,
2013-03-08 09:33:00,44.3,22.1,29.73,SSW,192,1.0,2.0,41,0.00,,---,0.00,VWS V14.01,2013-03-08 16:33:00,
2013-03-08 09:38:00,44.6,22.9,29.73,South,191,0.0,1.0,42,0.00,,---,0.00,VWS V14.01,2013-03-08 16:38:00,
2013-03-08 09:43:00,45.3,21.8,29.72,South,191,0.0,1.0,39,0.00,,---,0.00,VWS V14.01,2013-03-08 16:43:00,
2013-03-08 09:48:00,46.0,21.8,29.71,South,191,0.0,5.0,38,0.00,,---,0.00,VWS V14.01,2013-03-08 16:48:00,
2013-03-08 09:53:00,46.4,21.6,29.70,SSW,192,1.0,4.0,37,0.00,,---,0.00,VWS V14.01,2013-03-08 16:53:00,
2013-03-08 09:58:00,46.6,21.7,29.70,SSW,192,0.0,0.0,37,0.00,,---,0.00,VWS V14.01,2013-03-08 16:58:00,
2013-03-08 10:03:00,46.8,21.9,29.70,SSW,192,3.0,5.0,37,0.00,,---,0.00,VWS V14.01,2013-03-08 17:03:00,
2013-03-08 10:08:00,47.0,20.8,29.75,SSW,192,1.0,8.0,35,0.00,,---,0.00,VWS V14.01,2013-03-08 17:08:00,
2013-03-08 10:13:00,47.2,19.6,29.74,SSW,192,1.0,6.0,33,0.00,,---,0.00,VWS V14.01,2013-03-08 17:13:00,
2013-03-08 10:18:00,47.5,20.5,29.72,South,191,0.0,6.0,34,0.00,,---,0.00,VWS V14.01,2013-03-08 17:18:00,
2013-03-08 10:23:00,47.9,19.5,29.72,South,191,7.0,9.0,32,0.00,,---,0.00,VWS V14.01,2013-03-08 17:23:00,
2013-03-08 10:28:00,48.3,19.1,29.72,South,191,2.0,6.0,31,0.00,,---,0.00,VWS V14.01,2013-03-08 17:28:00,
2013-03-08 10:33:00,48.5,19.3,29.72,South,191,5.0,5.0,31,0.00,,---,0.00,VWS V14.01,2013-03-08 17:33:00,
2013-03-08 10:38:00,48.7,19.4,29.72,South,191,1.0,8.0,31,0.00,,---,0.00,VWS V14.01,2013-03-08 17:38:00,
2013-03-08 10:43:00,49.0,19.7,29.72,SSW,192,5.0,7.0,31,0.00,,---,0.00,VWS V14.01,2013-03-08 17:43:00,
2013-03-08 10:48:00,49.4,19.3,29.72,South,190,6.0,13.0,30,0.00,,---,0.00,VWS V14.01,2013-03-08 17:48:00,
2013-03-08 10:53:00,49.9,19.7,29.70,SSW,196,6.0,11.0,30,0.00,,---,0.00,VWS V14.01,2013-03-08 17:53:00,
2013-03-08 10:58:00,50.1,19.1,29.69,South,190,5.0,11.0,29,0.00,,---,0.00,VWS V14.01,2013-03-08 17:58:00,
2013-03-08 11:03:00,50.8,19.7,29.69,SSW,193,5.0,8.0,29,0.00,,---,0.00,VWS V14.01,2013-03-08 18:03:00,
2013-03-08 11:08:00,51.3,19.3,29.68,SSW,192,11.0,14.0,28,0.00,,---,0.00,VWS V14.01,2013-03-08 18:08:00,
2013-03-08 11:13:00,50.6,19.5,29.68,South,191,5.0,9.0,29,0.00,,---,0.00,VWS V14.01,2013-03-08 18:13:00,
2013-03-08 11:18:00,50.2,20.0,29.70,SSE,157,3.0,10.0,30,0.00,,---,0.00,VWS V14.01,2013-03-08 18:18:00,
2013-03-08 11:23:00,50.0,19.8,29.70,SSW,195,5.0,13.0,30,0.00,,---,0.00,VWS V14.01,2013-03-08 18:23:00,
2013-03-08 11:28:00,50.1,20.7,29.69,SSW,196,0.0,9.0,31,0.00,,---,0.00,VWS V14.01,2013-03-08 18:28:00,
2013-03-08 11:33:00,50.2,20.8,29.69,SSW,200,7.0,9.0,31,0.00,,---,0.00,VWS V14.01,2013-03-08 18:33:00,
2013-03-08 11:38:00,49.9,19.7,29.69,South,169,0.0,9.0,30,0.00,,---,0.00,VWS V14.01,2013-03-08 18:38:00,
2013-03-08 11:43:00,49.8,19.6,29.68,SE,126,1.0,5.0,30,0.00,,---,0.00,VWS V14.01,2013-03-08 18:43:00,
2013-03-08 11:48:00,49.9,20.5,29.68,SSE,148,4.0,6.0,31,0.00,,---,0.00,VWS V14.01,2013-03-08 18:48:00,
2013-03-08 11:53:00,49.8,19.6,29.68,SE,133,0.0,7.0,30,0.00,,---,0.00,VWS V14.01,2013-03-08 18:53:00,
2013-03-08 11:58:00,49.7,20.3,29.68,South,187,7.0,13.0,31,0.00,,---,0.00,VWS V14.01,2013-03-08 18:58:00,
2013-03-08 12:03:00,49.7,20.3,29.67,SE,128,1.0,6.0,31,0.00,,---,0.00,VWS V14.01,2013-03-08 19:03:00,
2013-03-08 12:08:00,49.5,19.4,29.67,SSW,192,1.0,13.0,30,0.00,,---,0.00,VWS V14.01,2013-03-08 19:08:00,
2013-03-08 12:13:00,49.5,19.4,29.67,SSW,194,7.0,8.0,30,0.00,,---,0.00,VWS V14.01,2013-03-08 19:13:00,
2013-03-08 12:18:00,49.7,19.5,29.67,South,189,3.0,11.0,30,0.00,,---,0.00,VWS V14.01,2013-03-08 19:18:00,
2013-03-08 12:23:00,49.7,19.5,29.67,SW,230,9.0,15.0,30,0.00,,---,0.00,VWS V14.01,2013-03-08 19:23:00,
2013-03-08 12:28:00,49.4,18.5,29.67,SW,218,1.0,13.0,29,0.00,,---,0.00,VWS V14.01,2013-03-08 19:28:00,
2013-03-08 12:33:00,49.4,19.3,29.67,SSW,192,2.0,15.0,30,0.00,,---,0.00,VWS V14.01,2013-03-08 19:33:00,
2013-03-08 12:39:00,49.3,19.2,29.66,SW,225,4.0,12.0,30,0.00,,---,0.00,VWS V14.01,2013-03-08 19:39:00,
2013-03-08 12:44:00,49.4,19.3,29.66,South,182,11.0,13.0,30,0.00,,---,0.00,VWS V14.01,2013-03-08 19:44:00,
2013-03-08 12:49:00,49.4,18.5,29.66,South,191,4.0,9.0,29,0.00,,---,0.00,VWS V14.01,2013-03-08 19:49:00,
2013-03-08 12:54:00,49.4,19.3,29.66,South,184,0.0,11.0,30,0.00,,---,0.00,VWS V14.01,2013-03-08 19:54:00,
2013-03-08 12:59:00,49.5,18.6,29.65,SE,131,0.0,4.0,29,0.00,,---,0.00,VWS V14.01,2013-03-08 19:59:00,
2013-03-08 13:04:00,49.5,19.4,29.65,South,173,2.0,8.0,30,0.00,,---,0.00,VWS V14.01,2013-03-08 20:04:00,
2013-03-08 13:09:00,49.4,18.5,29.64,South,184,0.0,10.0,29,0.00,,---,0.00,VWS V14.01,2013-03-08 20:09:00,
2013-03-08 13:14:00,49.5,19.4,29.64,SSE,155,2.0,7.0,30,0.00,,---,0.00,VWS V14.01,2013-03-08 20:14:00,
2013-03-08 13:19:00,49.5,18.6,29.63,SE,126,0.0,5.0,29,0.00,,---,0.00,VWS V14.01,2013-03-08 20:19:00,
2013-03-08 13:24:00,49.7,19.5,29.63,SSE,165,3.0,6.0,30,0.00,,---,0.00,VWS V14.01,2013-03-08 20:24:00,
2013-03-08 13:29:00,50.1,19.9,29.62,SSE,167,0.0,2.0,30,0.00,,---,0.00,VWS V14.01,2013-03-08 20:29:00,
2013-03-08 13:34:00,50.9,19.8,29.61,SSW,210,8.0,20.0,29,0.00,,---,0.00,VWS V14.01,2013-03-08 20:34:00,
2013-03-08 13:39:00,51.1,20.0,29.61,SW,229,8.0,15.0,29,0.00,,---,0.00,VWS V14.01,2013-03-08 20:39:00,
2013-03-08 13:44:00,50.1,19.9,29.63,SSW,201,19.0,19.0,30,0.00,,---,0.00,VWS V14.01,2013-03-08 20:44:00,
2013-03-08 13:49:00,49.5,21.6,29.62,SW,233,12.0,21.0,33,0.00,,---,0.00,VWS V14.01,2013-03-08 20:49:00,
2013-03-08 13:54:00,49.5,22.3,29.63,WSW,238,11.0,21.0,34,0.00,,---,0.00,VWS V14.01,2013-03-08 20:54:00,
2013-03-08 13:59:00,49.6,21.7,29.64,SW,223,14.0,22.0,33,0.00,,---,0.00,VWS V14.01,2013-03-08 20:59:00,
2013-03-08 14:04:00,49.2,22.7,29.63,WSW,237,10.0,22.0,35,0.00,,---,0.00,VWS V14.01,2013-03-08 21:04:00,
2013-03-08 14:09:00,48.6,22.9,29.61,SW,234,14.0,19.0,36,0.00,,---,0.00,VWS V14.01,2013-03-08 21:09:00,
2013-03-08 14:14:00,47.8,22.8,29.63,SW,232,9.0,14.0,37,0.00,,---,0.00,VWS V14.01,2013-03-08 21:14:00,
2013-03-08 14:19:00,47.9,24.1,29.62,South,179,10.0,12.0,39,0.00,,---,0.00,VWS V14.01,2013-03-08 21:19:00,
2013-03-08 14:24:00,47.8,25.8,29.61,SE,134,2.0,15.0,42,0.00,,---,0.00,VWS V14.01,2013-03-08 21:24:00,
2013-03-08 14:29:00,48.0,25.4,29.61,SSE,147,1.0,14.0,41,0.00,,---,0.00,VWS V14.01,2013-03-08 21:29:00,
2013-03-08 14:34:00,48.4,26.4,29.61,SSW,195,6.0,15.0,42,0.00,,---,0.00,VWS V14.01,2013-03-08 21:34:00,
2013-03-08 14:39:00,47.8,26.4,29.61,South,187,16.0,19.0,43,0.00,,---,0.00,VWS V14.01,2013-03-08 21:39:00,
2013-03-08 14:44:00,48.0,26.6,29.61,SSW,194,6.0,12.0,43,0.00,,---,0.00,VWS V14.01,2013-03-08 21:44:00,
2013-03-08 14:49:00,48.4,26.4,29.59,South,186,10.0,13.0,42,0.00,,---,0.00,VWS V14.01,2013-03-08 21:49:00,
2013-03-08 14:54:00,47.6,26.2,29.60,South,180,0.0,10.0,43,0.00,,---,0.00,VWS V14.01,2013-03-08 21:54:00,
2013-03-08 14:59:00,47.2,27.0,29.60,South,184,2.0,4.0,45,0.00,,---,0.00,VWS V14.01,2013-03-08 21:59:00,
2013-03-08 15:04:00,46.9,27.2,29.60,SE,125,0.0,6.0,46,0.00,,---,0.00,VWS V14.01,2013-03-08 22:04:00,
2013-03-08 15:09:00,46.5,26.9,29.61,SSE,151,1.0,7.0,46,0.00,,---,0.00,VWS V14.01,2013-03-08 22:09:00,
2013-03-08 15:14:00,46.3,27.2,29.63,SE,132,8.0,10.0,47,0.00,,---,0.00,VWS V14.01,2013-03-08 22:14:00,
2013-03-08 15:19:00,46.2,26.6,29.62,SSW,206,2.0,6.0,46,0.00,,---,0.00,VWS V14.01,2013-03-08 22:19:00,
2013-03-08 15:24:00,46.5,26.9,29.61,South,190,1.0,7.0,46,0.00,,---,0.00,VWS V14.01,2013-03-08 22:24:00,
2013-03-08 15:29:00,46.5,25.8,29.61,South,182,8.0,16.0,44,0.00,,---,0.00,VWS V14.01,2013-03-08 22:29:00,
2013-03-08 15:34:00,46.3,26.1,29.63,South,179,2.0,7.0,45,0.00,,---,0.00,VWS V14.01,2013-03-08 22:34:00,
2013-03-08 15:39:00,46.1,25.4,29.63,SSW,207,7.0,8.0,44,0.00,,---,0.00,VWS V14.01,2013-03-08 22:39:00,
2013-03-08 15:44:00,46.0,25.9,29.62,SE,126,0.0,4.0,45,0.00,,---,0.00,VWS V14.01,2013-03-08 22:44:00,
2013-03-08 15:49:00,46.1,25.4,29.61,SE,126,0.0,1.0,44,0.00,,---,0.00,VWS V14.01,2013-03-08 22:49:00,
2013-03-08 15:54:00,46.2,25.5,29.60,South,188,0.0,5.0,44,0.00,,---,0.00,VWS V14.01,2013-03-08 22:54:00,
2013-03-08 15:59:00,46.3,25.0,29.58,South,188,0.0,5.0,43,0.00,,---,0.00,VWS V14.01,2013-03-08 22:59:00,
2013-03-08 16:04:00,46.6,24.2,29.56,South,190,7.0,7.0,41,0.00,,---,0.00,VWS V14.01,2013-03-08 23:04:00,
2013-03-08 16:09:00,46.7,24.3,29.57,South,190,1.0,8.0,41,0.00,,---,0.00,VWS V14.01,2013-03-08 23:09:00,
2013-03-08 16:14:00,46.8,23.2,29.57,South,178,10.0,15.0,39,0.00,,---,0.00,VWS V14.01,2013-03-08 23:14:00,
2013-03-08 16:19:00,46.9,23.3,29.57,SSW,202,8.0,16.0,39,0.00,,---,0.00,VWS V14.01,2013-03-08 23:19:00,
2013-03-08 16:24:00,46.9,23.3,29.57,SSW,202,6.0,16.0,39,0.00,,---,0.00,VWS V14.01,2013-03-08 23:24:00,
2013-03-08 16:29:00,46.9,22.6,29.57,SW,227,11.0,13.0,38,0.00,,---,0.00,VWS V14.01,2013-03-08 23:29:00,
2013-03-08 16:35:00,46.8,23.8,29.57,SSW,194,8.0,14.0,40,0.00,,---,0.00,VWS V14.01,2013-03-08 23:35:00,
2013-03-08 16:40:00,46.7,23.7,29.58,SSW,206,8.0,10.0,40,0.00,,---,0.00,VWS V14.01,2013-03-08 23:40:00,
2013-03-08 16:45:00,46.6,24.2,29.57,SSW,193,4.0,12.0,41,0.00,,---,0.00,VWS V14.01,2013-03-08 23:45:00,
2013-03-08 16:50:00,46.4,22.2,29.58,SW,222,11.0,19.0,38,0.00,,---,0.00,VWS V14.01,2013-03-08 23:50:00,
2013-03-08 16:55:00,46.8,22.5,29.57,SW,217,9.0,14.0,38,0.00,,---,0.00,VWS V14.01,2013-03-08 23:55:00,
2013-03-08 17:00:00,46.4,23.4,29.57,SW,218,5.0,12.0,40,0.00,,---,0.00,VWS V14.01,2013-03-09 00:00:00,
2013-03-08 17:05:00,46.2,22.0,29.58,SSW,208,5.0,11.0,38,0.00,,---,0.00,VWS V14.01,2013-03-09 00:05:00,
2013-03-08 17:10:00,46.3,22.1,29.59,SSW,212,2.0,11.0,38,0.00,,---,0.00,VWS V14.01,2013-03-09 00:10:00,
2013-03-08 17:15:00,46.2,22.6,29.59,SSW,192,2.0,7.0,39,0.00,,---,0.00,VWS V14.01,2013-03-09 00:15:00,
2013-03-08 17:20:00,46.0,23.0,29.59,SSW,207,2.0,10.0,40,0.00,,---,0.00,VWS V14.01,2013-03-09 00:20:00,
2013-03-08 17:25:00,45.7,23.4,29.59,South,187,4.0,7.0,41,0.00,,---,0.00,VWS V14.01,2013-03-09 00:25:00,
2013-03-08 17:30:00,45.4,23.7,29.60,South,188,6.0,7.0,42,0.00,,---,0.00,VWS V14.01,2013-03-09 00:30:00,
2013-03-08 17:35:00,45.1,23.4,29.60,SSW,199,5.0,9.0,42,0.00,,---,0.00,VWS V14.01,2013-03-09 00:35:00,
2013-03-08 17:40:00,45.0,23.9,29.59,SSW,194,1.0,7.0,43,0.00,,---,0.00,VWS V14.01,2013-03-09 00:40:00,
2013-03-08 17:45:00,44.7,23.6,29.60,SSW,194,1.0,6.0,43,0.00,,---,0.00,VWS V14.01,2013-03-09 00:45:00,
2013-03-08 17:50:00,44.5,24.0,29.59,SSW,194,0.0,6.0,44,0.00,,---,0.00,VWS V14.01,2013-03-09 00:50:00,
2013-03-08 17:55:00,44.4,22.8,29.60,SSW,192,4.0,11.0,42,0.00,,---,0.00,VWS V14.01,2013-03-09 00:55:00,
2013-03-08 18:00:00,44.7,21.9,29.59,SW,216,5.0,18.0,40,0.00,,---,0.00,VWS V14.01,2013-03-09 01:00:00,
2013-03-08 18:05:00,44.7,22.5,29.58,SW,215,4.0,9.0,41,0.00,,---,0.00,VWS V14.01,2013-03-09 01:05:00,
2013-03-08 18:10:00,44.4,21.6,29.59,South,174,10.0,11.0,40,0.00,,---,0.00,VWS V14.01,2013-03-09 01:10:00,
2013-03-08 18:15:00,44.3,22.1,29.59,SSW,196,1.0,8.0,41,0.00,,---,0.00,VWS V14.01,2013-03-09 01:15:00,
2013-03-08 18:20:00,43.9,23.4,29.58,SSE,153,2.0,4.0,44,0.00,,---,0.00,VWS V14.01,2013-03-09 01:20:00,
2013-03-08 18:25:00,43.0,25.6,29.59,SE,132,4.0,6.0,50,0.00,,---,0.00,VWS V14.01,2013-03-09 01:25:00,
2013-03-08 18:30:00,42.3,25.0,29.59,SE,126,0.0,7.0,50,0.00,,---,0.00,VWS V14.01,2013-03-09 01:30:00,
2013-03-08 18:35:00,42.2,23.9,29.59,South,187,1.0,7.0,48,0.00,,---,0.00,VWS V14.01,2013-03-09 01:35:00,
2013-03-08 18:40:00,42.5,23.7,29.60,South,186,5.0,10.0,47,0.00,,---,0.00,VWS V14.01,2013-03-09 01:40:00,
2013-03-08 18:45:00,42.4,24.6,29.60,South,187,8.0,8.0,49,0.00,,---,0.00,VWS V14.01,2013-03-09 01:45:00,
2013-03-08 18:50:00,42.1,24.8,29.59,SSW,195,6.0,9.0,50,0.00,,---,0.00,VWS V14.01,2013-03-09 01:50:00,
2013-03-08 18:55:00,41.9,24.1,29.59,SSW,194,5.0,12.0,49,0.00,,---,0.00,VWS V14.01,2013-03-09 01:55:00,
2013-03-08 19:00:00,41.6,24.4,29.59,South,182,9.0,12.0,50,0.00,,---,0.00,VWS V14.01,2013-03-09 02:00:00,
2013-03-08 19:05:00,41.2,24.0,29.60,South,184,3.0,13.0,50,0.00,,---,0.00,VWS V14.01,2013-03-09 02:05:00,
2013-03-08 19:10:00,41.2,24.0,29.51,SSW,202,9.0,13.0,50,0.00,,---,0.00,VWS V14.01,2013-03-09 02:10:00,
2013-03-08 19:15:00,41.3,23.1,29.51,SSW,198,12.0,18.0,48,0.00,,---,0.00,VWS V14.01,2013-03-09 02:15:00,
2013-03-08 19:20:00,40.9,22.2,29.51,South,183,9.0,20.0,47,0.00,,---,0.00,VWS V14.01,2013-03-09 02:20:00,
2013-03-08 19:25:00,40.8,23.6,29.50,SW,219,13.0,18.0,50,0.00,,---,0.00,VWS V14.01,2013-03-09 02:25:00,
2013-03-08 19:30:00,40.7,23.0,29.50,SSW,195,18.0,24.0,49,0.00,,---,0.00,VWS V14.01,2013-03-09 02:30:00,
2013-03-08 19:35:00,41.3,22.1,29.50,WSW,240,9.0,25.0,46,0.00,,---,0.00,VWS V14.01,2013-03-09 02:35:00,
2013-03-08 19:40:00,41.8,22.5,29.50,SSW,202,10.0,20.0,46,0.00,,---,0.00,VWS V14.01,2013-03-09 02:40:00,
2013-03-08 19:45:00,41.8,23.1,29.51,SW,219,6.0,15.0,47,0.00,,---,0.00,VWS V14.01,2013-03-09 02:45:00,
2013-03-08 19:50:00,41.4,22.7,29.52,SSE,166,5.0,15.0,47,0.00,,---,0.00,VWS V14.01,2013-03-09 02:50:00,
2013-03-08 19:55:00,41.1,23.4,29.52,SE,131,0.0,5.0,49,0.00,,---,0.00,VWS V14.01,2013-03-09 02:55:00,
2013-03-08 20:00:00,40.5,23.3,29.52,ESE,117,0.0,6.0,50,0.00,,---,0.00,VWS V14.01,2013-03-09 03:00:00,
2013-03-08 20:05:00,40.1,23.4,29.54,SE,126,4.0,6.0,51,0.00,,---,0.00,VWS V14.01,2013-03-09 03:05:00,
2013-03-08 20:11:00,40.5,24.3,29.55,ESE,111,12.0,12.0,52,0.00,,---,0.00,VWS V14.01,2013-03-09 03:11:00,
2013-03-08 20:16:00,40.4,25.1,29.54,SE,126,2.0,8.0,54,0.00,,---,0.00,VWS V14.01,2013-03-09 03:16:00,
2013-03-08 20:21:00,40.0,25.6,29.53,SE,142,0.0,8.0,56,0.00,,---,0.00,VWS V14.01,2013-03-09 03:21:00,
2013-03-08 20:26:00,39.7,25.7,29.54,SSE,165,1.0,4.0,57,0.00,,---,0.00,VWS V14.01,2013-03-09 03:26:00,
2013-03-08 20:31:00,39.5,26.4,29.54,SE,141,1.0,9.0,59,0.00,,---,0.00,VWS V14.01,2013-03-09 03:31:00,
2013-03-08 20:36:00,39.3,26.6,29.56,ESE,122,2.0,8.0,60,0.00,,---,0.00,VWS V14.01,2013-03-09 03:36:00,
2013-03-08 20:41:00,38.9,27.0,29.57,South,190,6.0,10.0,62,0.00,,---,0.00,VWS V14.01,2013-03-09 03:41:00,
2013-03-08 20:46:00,38.7,26.8,29.58,South,182,10.0,15.0,62,0.00,,---,0.00,VWS V14.01,2013-03-09 03:46:00,
2013-03-08 20:51:00,38.6,27.5,29.59,SW,223,5.0,19.0,64,0.00,,---,0.00,VWS V14.01,2013-03-09 03:51:00,
2013-03-08 20:56:00,37.9,28.3,29.58,SSW,193,4.0,11.0,68,0.00,,---,0.00,VWS V14.01,2013-03-09 03:56:00,
2013-03-08 21:01:00,36.9,28.7,29.60,WSW,240,7.0,9.0,72,0.00,,---,0.00,VWS V14.01,2013-03-09 04:01:00,
2013-03-08 21:06:00,36.1,29.0,29.59,WSW,239,0.0,4.0,75,0.00,,---,0.00,VWS V14.01,2013-03-09 04:06:00,
2013-03-08 21:11:00,35.6,28.8,29.54,WSW,239,0.0,0.0,76,0.00,,---,0.00,VWS V14.01,2013-03-09 04:11:00,
2013-03-08 21:16:00,35.2,29.0,29.53,WSW,239,0.0,0.0,78,0.00,,---,0.00,VWS V14.01,2013-03-09 04:16:00,
2013-03-08 21:21:00,34.8,28.6,29.51,SE,128,0.0,4.0,78,0.00,,---,0.00,VWS V14.01,2013-03-09 04:21:00,
2013-03-08 21:26:00,34.4,28.9,29.53,SE,128,0.0,4.0,80,0.00,,---,0.00,VWS V14.01,2013-03-09 04:26:00,
2013-03-08 21:31:00,34.4,29.2,29.54,South,172,1.0,7.0,81,0.00,,---,0.00,VWS V14.01,2013-03-09 04:31:00,
2013-03-08 21:36:00,34.4,29.2,29.55,ESE,120,0.0,6.0,81,0.00,,---,0.00,VWS V14.01,2013-03-09 04:36:00,
2013-03-08 21:41:00,34.4,29.2,29.55,South,179,0.0,4.0,81,0.00,,---,0.00,VWS V14.01,2013-03-09 04:41:00,
2013-03-08 21:46:00,34.9,28.4,29.52,SE,126,2.0,8.0,77,0.00,,---,0.00,VWS V14.01,2013-03-09 04:46:00,
2013-03-08 21:51:00,35.6,27.1,29.52,SSW,211,4.0,4.0,71,0.00,,---,0.00,VWS V14.01,2013-03-09 04:51:00,
2013-03-08 21:56:00,36.4,26.5,29.51,SSW,200,2.0,10.0,67,0.00,,---,0.00,VWS V14.01,2013-03-09 04:56:00,